Wind_Speed
37 37 37 38 38 37 37 37 37 37 37 37 37 36 36 36 35 35 35 35 36 36 36 37 38 39 40 41 41 42 43 43 43 44 44 44 44 43 42 41 40 40 40 39 39 40 40 41 41 40 40 41 40 40 40 39 39 39 39 40 40 40 41 43 47 50 48 44 44 43 41 41 42 42 40 38 37 38 39 39 39 39 39 39 39
42 42 42 42 42 42 42 42 42 42 42 42 42 42 41 41 40 40 39 38 38 39 39 39 39 39 40 40 41 42 43 43 44 44 43 43 44 43 43 42 42 41 40 40 40 40 41 41 41 41 41 41 41 41 41 41 41 42 41 42 43 42 43 45 47 50 51 49 47 47 45 45 45 45 43 41 38 38 39 39 39 39 39 40 41
46 47 47 47 46 46 46 45 45 45 45 45 45 45 45 45 45 45 44 43 43 42 43 43 43 43 42 42 42 42 42 43 44 44 44 44 44 44 44 44 44 44 43 42 42 42 42 42 42 42 43 43 43 42 43 43 43 44 44 44 45 45 46 48 50 52 53 53 51 50 48 47 48 48 47 45 42 40 40 40 40 40 39 40 41
48 49 49 49 49 49 49 48 48 47 47 47 47 48 48 47 47 47 47 47 47 47 47 46 46 46 47 47 46 46 46 45 45 46 46 46 46 46 45 45 46 46 46 45 45 45 45 45 45 45 46 46 46 46 46 47 47 48 48 48 49 50 50 51 53 54 56 56 54 52 51 49 49 49 50 49 46 44 43 42 42 41 41 41 41
49 50 50 51 51 51 51 51 51 50 50 49 49 49 49 49 49 49 48 49 49 49 50 50 50 50 50 50 50 50 50 50 50 50 50 50 50 49 48 48 47 47 47 47 47 47 47 47 47 47 48 48 48 48 48 49 50 51 51 52 52 53 53 54 54 55 56 57 56 54 53 51 50 49 49 49 48 46 45 44 43 42 42 43 42
50 50 51 51 52 52 53 53 54 54 54 53 52 51 51 51 51 51 51 51 50 50 50 51 52 52 52 52 52 53 53 54 55 55 55 56 55 55 55 53 52 51 51 50 49 49 48 48 47 47 48 48 48 48 48 48 49 50 50 51 51 52 53 53 53 54 54 56 56 55 53 52 50 49 49 49 49 47 47 46 44 43 44 44 43
51 51 52 52 52 52 53 53 54 55 56 56 56 55 54 54 54 53 53 53 53 52 52 52 52 53 53 54 54 55 55 55 56 57 59 60 60 61 61 60 60 59 58 57 56 55 54 53 52 51 50 50 49 49 49 48 48 48 48 49 49 50 50 50 50 51 52 52 53 54 53 52 51 50 49 50 50 49 49 50 48 46 47 47 45
52 52 53 54 54 55 54 54 54 54 55 56 56 57 57 57 56 56 55 55 55 55 54 54 53 53 54 55 55 56 56 57 57 58 59 60 61 63 64 65 65 65 64 64 64 63 63 62 61 60 59 58 56 55 54 53 52 51 51 51 51 51 51 51 50 50 50 51 51 51 52 51 51 50 50 50 51 50 50 52 52 50 50 51 48
53 54 55 55 56 57 57 57 57 57 57 57 57 57 58 58 58 58 57 57 57 57 57 56 56 55 55 55 56 57 57 58 58 58 59 59 60 61 63 64 65 66 67 68 68 68 69 69 68 68 67 66 65 63 62 61 60 59 57 57 57 57 56 55 54 53 53 53 53 52 52 52 51 51 51 51 52 53 53 53 54 53 53 54 51
56 56 57 57 58 58 59 59 60 60 60 60 60 60 60 60 60 59 59 59 59 58 58 58 58 58 58 57 57 57 57 58 58 59 59 60 61 61 62 62 63 64 64 65 66 67 69 70 71 71 71 71 70 70 69 68 68 67 66 65 64 62 61 60 59 58 58 58 57 56 56 55 53 52 54 54 54 57 57 56 58 57 56 58 54
59 59 59 60 60 60 60 60 61 61 62 62 62 63 63 62 62 62 62 61 61 61 60 60 59 59 60 60 60 59 58 57 58 58 59 60 60 61 61 61 61 61 62 62 62 63 63 65 66 68 69 70 71 72 72 72 72 72 72 72 71 69 68 66 65 64 63 63 62 60 61 60 58 57 57 57 57 59 59 59 60 60 60 62 60
61 61 62 62 62 63 63 63 62 62 62 63 63 63 64 64 64 64 64 64 64 64 63 63 62 61 60 60 61 61 60 59 58 58 58 59 60 60 60 60 60 60 60 60 60 60 61 61 62 63 64 65 66 67 67 68 69 70 71 72 72 73 72 71 70 68 67 66 65 64 63 62 61 59 58 59 60 61 61 61 62 62 62 63 63
63 63 63 63 63 64 64 64 64 64 63 63 63 63 63 64 64 65 65 65 65 65 65 65 65 64 63 62 61 61 61 60 59 59 58 59 60 60 60 60 60 59 59 60 60 60 60 60 60 60 60 61 61 62 62 62 62 63 63 64 65 65 66 67 66 65 64 63 63 63 61 60 59 57 56 58 61 62 62 63 63 64 65 65 65
63 63 63 63 63 63 64 64 64 64 64 64 63 63 62 62 62 63 64 65 65 66 66 66 66 66 66 66 65 63 61 60 60 59 59 59 60 61 61 61 60 60 59 58 58 58 58 58 58 58 57 57 58 58 59 60 60 61 60 60 60 60 60 60 60 60 59 59 60 59 57 57 59 57 55 58 63 63 64 65 65 65 66 66 67
61 61 61 61 61 61 62 62 62 62 62 62 62 62 61 61 61 61 61 62 62 63 64 65 66 66 66 66 66 65 64 61 60 59 59 60 60 61 62 62 62 61 60 59 58 57 57 57 57 56 55 54 54 54 55 56 57 59 59 60 60 59 59 59 59 59 59 59 60 60 58 58 61 60 58 60 64 65 65 65 65 65 66 67 67
58 57 57 57 57 57 58 59 59 59 59 59 59 59 59 59 59 59 59 59 59 60 61 62 63 65 65 65 65 65 65 63 62 60 59 59 60 61 62 62 62 62 61 60 58 57 56 56 56 55 55 54 54 54 54 54 55 56 57 57 58 59 59 59 59 59 59 60 61 61 61 61 62 63 63 63 64 65 65 65 64 64 65 66 66
54 54 53 53 52 52 53 54 54 54 55 55 56 56 56 56 56 56 57 57 57 57 58 58 59 60 62 63 63 64 64 63 62 61 60 59 59 60 61 62 62 62 62 60 58 57 55 55 55 55 55 55 54 54 54 55 55 56 57 57 57 57 58 58 59 59 59 61 61 61 61 62 62 63 63 63 63 63 63 64 63 62 64 65 66
50 50 49 49 48 48 49 49 50 50 50 51 52 52 52 53 53 53 54 55 55 55 56 56 57 57 58 59 60 61 62 61 61 61 61 60 60 59 59 60 60 61 62 62 61 59 57 55 55 56 56 56 56 56 56 56 56 56 57 58 58 57 57 58 59 59 59 61 61 61 61 62 62 62 62 62 62 62 63 63 62 61 64 65 65
47 47 47 46 47 46 46 47 47 47 48 48 49 49 50 50 51 51 52 53 53 54 54 55 55 55 55 56 57 58 59 58 58 59 60 60 60 60 59 59 58 58 59 60 61 61 61 59 58 58 57 58 58 58 58 58 57 56 56 57 58 57 57 59 59 59 59 60 60 61 61 61 62 62 62 61 61 61 62 62 61 62 63 64 64
46 46 45 45 45 45 45 45 45 45 46 46 46 47 48 49 49 50 51 52 52 53 53 53 54 54 53 54 54 55 56 56 55 56 58 59 59 59 59 59 59 58 58 58 58 59 60 61 62 62 61 61 61 61 61 60 60 58 57 57 57 56 57 58 59 59 59 60 60 60 61 60 61 61 61 60 61 61 61 61 61 61 62 63 64
45 45 44 44 44 43 43 43 43 43 44 44 44 44 45 46 47 48 49 50 50 51 51 52 52 52 52 52 52 52 52 52 52 52 54 55 55 55 56 57 58 58 58 58 58 57 57 58 60 61 63 63 63 63 62 61 61 60 58 57 57 56 56 57 57 57 58 59 59 59 60 59 60 60 60 60 60 60 60 60 60 60 61 62 63
41 41 41 41 40 40 39 39 39 40 40 40 41 41 42 43 43 44 45 46 47 48 48 49 49 49 49 49 48 48 48 48 48 48 48 50 50 50 51 53 54 56 57 57 57 57 57 57 58 59 60 61 61 60 61 61 60 59 58 57 56 56 56 56 56 56 56 56 57 57 57 58 58 58 58 58 58 58 58 58 58 59 59 60 61
35 35 35 35 35 35 35 35 35 35 36 36 37 37 38 39 39 40 41 41 42 42 43 44 44 45 45 45 44 43 44 44 43 42 42 43 44 45 46 48 49 51 54 55 55 55 55 56 57 58 58 59 58 58 58 58 57 57 56 55 55 54 54 54 54 54 54 54 54 54 54 55 55 54 55 55 55 55 55 56 56 57 58 58 58
30 31 31 31 31 31 31 32 32 33 34 34 35 35 36 36 37 38 39 39 39 39 39 40 41 41 42 42 41 41 41 41 39 38 37 38 40 41 43 44 45 47 49 51 52 53 53 53 54 55 56 56 56 56 56 55 54 54 53 53 52 52 52 52 52 52 52 52 52 52 52 52 52 51 52 52 52 52 52 53 54 54 54 55 55
29 29 29 29 30 30 31 32 33 34 34 35 35 36 36 37 37 38 39 39 39 39 39 39 39 40 40 41 41 40 39 39 38 37 36 37 38 39 41 42 43 43 44 46 47 48 49 50 51 51 51 52 52 53 53 52 52 51 51 50 50 50 50 50 50 50 51 50 50 50 50 50 50 50 50 50 50 50 50 50 51 51 51 51 51
30 30 30 30 31 31 32 33 34 35 35 36 36 36 37 37 38 38 39 39 39 39 39 39 39 40 40 40 40 40 39 38 38 37 37 37 36 37 38 39 39 39 39 40 41 43 44 45 47 48 49 49 49 50 50 50 49 49 48 48 48 48 49 49 50 50 50 49 49 49 49 49 49 49 49 49 49 49 49 49 49 48 48 49 49
32 32 33 32 32 33 34 34 35 35 36 36 36 36 37 37 37 38 38 38 38 39 39 39 39 39 39 40 39 38 36 36 36 36 35 36 36 35 34 35 35 34 34 35 35 37 39 40 42 44 45 47 47 47 47 47 46 46 45 45 46 46 47 48 49 49 49 49 48 48 47 47 47 47 47 47 47 47 47 47 47 47 47 47 47
35 35 35 35 35 35 36 37 37 36 36 36 36 36 36 37 37 37 37 37 38 38 38 39 38 39 39 39 37 35 34 34 34 34 33 33 34 34 33 32 31 31 31 31 31 32 33 34 36 38 40 42 43 44 44 44 44 43 43 43 43 44 45 46 47 47 47 47 47 46 46 46 46 46 46 46 46 45 45 45 45 45 45 45 44
38 38 38 37 37 37 38 39 39 38 37 36 36 35 36 36 36 36 36 36 36 36 37 38 38 38 39 39 37 35 35 34 33 33 32 32 32 32 32 32 31 30 29 30 30 30 30 31 33 34 36 37 38 40 40 40 40 40 40 41 41 42 43 44 44 45 45 45 45 45 44 44 44 44 43 43 42 42 41 41 41 41 41 41 41
41 41 40 40 39 40 40 41 41 40 39 38 36 35 35 34 34 35 35 35 35 34 35 36 36 37 39 39 38 37 36 35 35 34 34 33 32 32 31 31 31 30 30 30 30 31 31 31 32 32 33 33 34 35 36 36 35 36 37 38 38 39 39 40 41 42 42 42 42 42 42 42 41 41 40 40 39 38 38 38 38 38 38 38 39
43 43 43 42 42 42 42 43 42 42 41 40 38 36 35 34 33 33 33 33 33 33 33 33 34 35 36 37 38 37 37 36 36 36 35 35 34 34 32 31 31 31 31 31 31 31 32 32 32 32 32 32 32 32 32 32 31 31 32 33 34 35 35 36 37 38 38 38 39 39 39 39 38 38 37 37 36 35 35 36 36 37 36 37 37
45 45 44 44 44 44 44 44 44 43 42 41 39 37 36 35 34 33 31 31 31 31 31 32 32 32 33 35 36 37 37 37 37 36 36 36 35 34 33 32 32 32 32 32 32 31 31 32 33 32 32 32 32 32 31 30 29 29 29 29 30 31 32 32 33 34 35 36 36 36 36 36 36 36 36 35 34 33 33 34 34 34 35 35 35
45 45 45 46 46 45 45 45 44 44 43 41 40 39 37 36 35 34 32 30 29 29 30 30 31 31 31 32 34 35 36 37 37 37 37 36 35 35 33 32 32 32 32 32 32 32 32 32 32 33 33 33 32 32 32 31 30 29 28 28 28 28 29 30 31 32 33 34 34 34 34 34 34 34 33 32 32 31 31 32 32 32 33 33 33
45 45 45 45 45 45 44 44 44 43 42 41 40 39 37 36 35 35 34 33 31 29 28 29 30 30 30 30 31 32 33 35 36 37 36 36 35 35 34 33 32 32 32 32 32 31 32 32 32 32 33 33 33 32 31 31 30 30 29 28 27 27 27 28 30 30 31 31 31 32 32 32 32 31 31 31 30 30 29 29 30 30 31 31 31
44 43 43 43 43 42 42 42 42 42 41 40 39 38 37 36 35 35 34 34 34 32 31 30 30 31 31 30 30 30 31 32 33 34 35 35 35 34 33 33 32 31 31 31 31 31 31 31 31 31 32 32 32 31 30 30 30 30 29 29 28 27 27 27 27 27 28 28 29 29 30 30 30 29 29 28 28 27 27 27 28 28 29 29 29
42 42 41 41 41 40 40 40 39 40 40 39 39 38 37 36 36 35 35 35 35 34 34 33 32 32 32 32 32 31 31 32 32 33 33 34 34 34 33 32 31 30 29 29 30 30 31 31 31 30 30 31 31 31 30 30 30 30 30 29 29 28 27 26 25 25 25 26 26 27 27 27 27 27 27 27 26 25 25 26 26 27 27 28 28
41 41 40 40 39 39 39 38 38 38 38 38 38 38 38 37 36 36 36 36 36 35 35 35 34 34 33 33 32 32 32 32 32 33 33 34 34 34 33 33 32 31 30 29 29 29 29 30 30 29 29 30 30 30 31 31 31 31 30 29 29 28 28 27 26 25 25 24 24 24 25 25 26 26 26 25 25 24 24 24 25 25 26 26 26
40 39 39 39 39 38 38 38 38 37 38 38 38 38 38 38 37 37 37 37 36 36 36 35 35 35 35 34 33 32 32 32 32 32 33 33 33 33 33 33 32 31 31 30 29 28 28 28 29 29 29 29 29 30 30 30 30 30 30 29 28 28 28 28 27 26 26 25 24 23 23 24 24 25 25 24 24 23 23 23 23 24 24 25 25
38 38 38 39 39 39 39 39 39 38 38 38 38 38 38 38 38 38 38 38 37 37 36 36 36 36 36 36 35 34 33 32 32 31 31 32 32 32 32 32 31 31 30 29 28 28 27 27 27 28 28 28 28 28 29 29 29 29 28 28 27 27 27 27 27 27 27 27 26 24 24 24 24 24 23 23 23 22 22 22 22 22 23 23 23
39 39 39 39 40 40 40 40 40 40 39 39 39 39 39 39 39 39 39 39 38 38 37 37 36 36 36 36 37 36 35 33 32 32 31 31 31 31 31 31 30 29 29 28 28 27 27 26 26 26 26 26 27 27 28 28 28 28 28 28 27 27 27 27 27 27 27 27 27 26 25 24 24 23 23 22 22 21 21 21 20 20 21 21 22
41 41 41 41 41 41 41 40 40 40 40 40 41 41 40 40 40 40 40 39 39 39 38 38 37 37 36 36 36 37 36 35 34 33 32 31 31 30 30 30 30 29 28 27 27 26 26 25 25 25 25 25 25 25 26 26 27 27 27 27 27 27 26 26 26 26 26 27 27 27 26 25 25 24 23 22 22 21 21 20 19 19 19 19 20
42 42 42 42 41 41 41 41 41 41 41 40 40 40 41 40 40 40 40 40 40 39 39 38 38 37 36 36 36 36 36 36 35 34 33 32 31 30 29 29 29 28 28 27 26 25 25 25 24 24 23 23 23 23 24 24 25 25 26 26 26 26 25 25 25 25 25 25 26 26 26 26 25 25 24 23 23 22 22 20 19 18 18 18 18
41 41 41 41 41 41 41 41 41 41 40 40 40 40 40 40 40 39 39 39 39 39 39 39 38 37 36 36 35 35 35 35 34 34 33 32 31 30 29 29 28 28 27 27 25 24 24 24 24 23 23 22 22 22 22 22 23 23 24 24 24 24 24 24 24 24 24 24 24 24 24 24 24 24 24 24 24 23 22 20 19 18 18 17 17
40 39 39 39 39 39 39 40 40 40 39 39 39 39 39 39 39 39 38 38 38 38 38 38 37 37 36 35 35 34 34 34 33 33 33 32 31 30 30 29 28 28 27 26 25 24 23 23 23 22 22 22 21 21 21 21 21 21 21 21 21 22 22 22 22 22 22 22 22 22 22 22 22 23 23 23 23 23 22 20 19 19 18 17 17
39 39 39 39 38 38 38 38 38 38 38 38 38 37 37 38 38 37 37 37 37 37 36 36 36 36 36 35 34 34 33 32 32 32 32 31 31 30 29 29 28 28 27 26 25 24 23 22 22 22 22 21 21 20 20 20 20 19 19 18 18 19 19 19 19 19 20 20 20 20 20 20 20 20 20 20 20 20 20 19 19 19 18 17 16
39 39 39 39 39 38 38 38 38 38 37 37 37 36 36 36 36 36 36 36 36 36 35 35 35 35 34 34 33 33 32 31 31 30 30 30 30 29 29 28 28 28 27 26 24 23 22 21 21 21 20 20 20 19 19 19 18 18 18 17 17 17 17 17 17 17 17 17 17 17 17 17 16 17 17 17 17 17 17 17 17 17 17 16 16
39 39 39 39 39 39 38 38 38 38 37 37 37 36 36 35 35 34 35 35 35 35 35 34 34 33 33 33 32 32 31 31 30 29 29 29 29 28 28 27 27 27 27 26 25 23 22 21 20 20 19 19 19 19 18 18 18 17 17 16 16 16 16 16 15 16 15 15 15 14 14 14 13 13 14 14 14 14 14 14 15 15 15 15 15
39 39 39 39 39 39 39 38 38 37 37 37 36 36 36 35 34 34 34 33 33 33 33 33 33 32 32 31 31 31 30 30 29 28 28 28 27 27 27 26 26 26 27 26 26 24 23 21 20 19 19 19 18 18 17 17 17 17 16 16 16 16 15 14 14 14 14 13 13 12 12 12 12 11 11 11 12 12 12 12 12 12 12 13 13
39 39 39 39 39 39 39 38 38 37 37 36 36 35 35 35 34 34 33 33 32 32 32 32 31 31 31 30 30 29 29 28 28 27 27 26 26 26 25 25 25 25 25 25 25 25 23 22 20 19 19 18 18 17 17 16 16 16 16 15 15 14 14 13 13 13 13 13 12 12 11 11 11 11 10 10 10 10 10 10 11 11 11 11 11
40 40 39 39 38 38 38 38 37 37 36 36 35 35 34 34 33 33 32 32 32 31 31 31 31 30 30 30 29 28 28 27 26 26 26 25 25 25 24 24 24 24 24 24 24 24 23 22 21 19 19 18 18 18 17 17 16 16 16 15 15 14 14 13 13 13 12 12 12 11 11 10 10 9 9 9 10 10 10 10 10 10 10 10 10
40 40 39 38 38 37 37 37 36 36 35 35 35 34 34 33 33 32 32 31 31 31 30 30 30 29 29 29 29 28 27 26 25 25 24 24 24 23 23 23 23 24 23 23 23 23 23 22 21 20 19 18 18 18 17 17 17 16 16 15 15 15 15 14 13 13 12 12 11 11 10 10 9 9 9 9 9 9 10 10 10 10 10 10 10
Wind_Direction
281 281 281 281 281 280 279 277 276 275 275 275 275 275 275 274 273 271 269 268 267 266 266 265 265 265 265 266 266 267 267 267 267 268 268 268 268 267 267 266 267 267 267 267 267 267 268 268 268 268 268 268 269 269 269 269 269 269 269 269 269 270 271 272 274 276 277 278 279 279 280 279 278 278 278 276 275 276 277 277 278 279 280 281 281
280 281 280 280 280 280 280 279 278 277 276 275 274 274 274 274 274 273 271 270 268 267 266 264 263 263 262 262 263 263 264 264 264 265 266 266 266 266 265 264 264 263 263 263 263 264 264 265 265 265 265 265 266 266 267 267 267 267 267 268 269 269 270 272 273 275 275 276 278 278 279 281 281 281 281 280 278 278 278 277 277 279 280 281 280
281 281 281 281 281 281 280 280 280 279 278 278 277 275 275 274 274 273 272 271 270 269 268 267 266 265 263 263 262 262 262 262 262 262 263 263 264 264 264 264 263 262 261 261 261 261 262 262 263 263 264 264 264 265 265 266 266 267 267 267 268 269 270 272 274 275 276 276 278 279 279 281 283 283 284 283 281 280 280 279 278 279 279 279 279
281 281 281 281 281 281 281 281 281 281 280 280 279 279 278 277 275 274 272 271 271 270 269 268 268 267 266 265 264 264 263 263 263 263 264 264 264 264 264 264 264 264 263 262 261 261 261 261 262 263 264 264 265 265 266 266 267 267 268 268 269 269 270 272 274 275 276 276 277 279 280 280 281 283 284 284 283 282 281 279 280 279 278 277 277
283 282 281 281 281 281 281 281 281 281 281 281 280 280 279 279 278 277 275 273 271 270 269 268 267 267 266 265 264 264 263 263 263 264 266 266 266 266 265 265 265 266 266 265 264 264 263 263 263 263 264 264 265 265 266 266 267 267 268 268 269 270 270 271 273 274 276 276 276 277 279 280 280 280 282 284 284 283 282 281 280 279 278 277 277
284 284 283 282 282 281 281 280 280 280 280 280 280 280 279 279 279 278 277 275 273 272 270 268 267 266 266 265 264 263 263 262 262 262 263 265 267 268 267 267 266 266 266 267 267 267 267 267 266 266 266 266 266 266 266 266 266 267 267 268 269 269 270 271 273 274 275 276 277 277 278 279 279 279 280 283 284 283 283 283 281 280 279 278 277
286 286 285 284 283 282 282 281 281 280 279 279 279 279 278 278 278 277 276 276 274 273 271 269 268 266 265 264 263 263 262 262 261 260 261 261 262 263 265 266 266 267 267 268 268 269 269 269 269 269 269 269 268 268 268 268 268 269 270 271 271 271 271 271 273 275 276 276 277 277 277 278 279 280 281 283 283 283 284 285 283 281 281 281 279
288 287 287 286 285 284 283 282 282 281 281 280 279 279 279 278 278 277 276 275 274 273 271 270 268 266 265 263 262 262 262 262 261 261 261 261 260 260 260 261 262 263 265 267 268 269 270 271 271 272 272 272 272 271 271 271 272 272 273 275 276 275 275 274 275 276 277 278 278 278 278 278 278 280 282 283 284 284 284 285 284 282 282 282 280
288 287 287 286 286 286 285 284 283 283 282 281 281 280 279 279 278 278 277 276 275 274 272 271 269 267 266 264 263 262 262 262 262 262 262 262 261 261 261 261 261 261 261 263 264 266 268 270 271 272 273 273 274 273 273 273 274 275 275 277 279 279 278 278 278 278 279 280 280 279 280 279 278 280 283 284 285 286 285 285 285 283 282 282 279
290 289 288 287 287 286 285 285 284 284 283 282 281 281 280 279 278 277 277 277 276 275 273 272 271 270 269 267 265 264 264 263 263 263 263 263 263 263 263 263 263 262 262 262 262 262 264 265 267 269 271 272 273 274 274 274 275 276 276 277 278 279 279 279 279 279 280 281 280 280 281 280 279 281 283 284 285 287 286 285 285 284 283 282 279
295 294 293 292 291 289 288 287 286 286 285 284 283 282 281 280 279 278 277 277 276 276 275 273 272 271 270 269 268 267 265 265 265 264 264 264 264 264 264 264 264 264 264 264 263 263 262 263 264 264 266 267 269 270 271 271 272 274 275 275 276 277 277 278 279 279 280 280 280 281 281 281 281 281 283 283 284 284 284 284 284 284 283 283 280
300 299 298 297 296 295 293 292 290 289 288 286 285 284 283 282 280 279 278 277 276 276 276 275 274 272 271 270 270 269 268 267 266 265 265 264 264 264 264 264 264 264 264 264 265 265 264 264 264 264 264 265 265 266 267 267 268 270 271 272 273 274 275 276 277 278 278 279 279 279 280 281 281 281 281 282 281 281 282 282 282 283 282 282 282
302 301 301 300 299 298 297 295 294 293 291 290 288 287 285 284 283 281 280 278 277 276 275 275 274 274 273 271 270 269 269 268 267 266 265 264 264 263 262 262 262 262 263 263 264 264 265 265 265 265 265 265 265 266 266 266 266 267 267 268 269 270 271 272 274 275 275 276 276 276 277 278 278 278 279 279 279 279 279 280 280 281 281 281 281
304 303 302 302 301 300 298 297 296 295 294 293 292 290 288 287 285 283 282 280 278 277 275 274 273 273 273 272 271 269 268 267 267 267 266 264 263 262 261 261 261 261 261 262 262 263 264 265 265 266 266 266 266 266 266 266 265 265 265 266 267 267 268 269 269 270 271 271 271 272 273 273 273 274 274 275 276 277 277 278 278 278 279 279 279
305 305 304 303 302 301 300 298 297 296 295 294 293 292 291 289 287 285 283 281 280 278 277 275 274 272 272 272 271 270 269 268 266 266 265 265 263 262 261 260 260 260 260 260 262 263 264 265 265 266 266 266 267 267 266 266 266 265 265 266 266 266 267 267 267 267 268 268 269 270 270 270 271 272 272 272 274 275 276 276 276 277 277 277 277
306 305 304 304 303 302 300 299 298 297 296 295 294 293 292 291 289 288 286 284 282 280 278 277 275 274 272 271 271 270 269 269 268 267 266 265 264 263 262 260 260 259 259 259 260 261 262 263 264 265 265 265 266 266 267 267 267 266 266 266 266 266 266 266 266 267 267 267 267 267 268 268 269 270 271 271 272 273 273 273 274 275 276 275 276
306 305 304 303 302 301 300 298 298 297 297 296 295 294 294 292 291 290 288 286 284 282 281 279 277 275 274 272 271 270 268 268 269 269 268 267 266 265 263 262 261 260 259 259 259 259 260 261 262 263 264 264 265 266 266 267 267 266 266 266 266 265 265 265 265 265 265 265 265 266 266 267 267 268 269 269 270 271 272 272 273 273 274 274 275
305 304 303 302 301 300 299 298 297 296 296 295 295 295 295 294 293 292 290 289 286 284 283 281 279 277 276 274 272 271 269 267 267 268 268 268 267 266 265 263 262 261 260 259 259 259 259 260 261 262 263 264 265 265 266 266 266 266 266 265 265 265 265 265 264 264 264 264 265 265 265 266 266 267 267 268 269 270 271 272 273 273 274 274 275
304 303 302 302 301 301 300 298 296 295 295 295 295 295 295 294 294 293 292 291 290 288 287 285 282 280 279 277 275 273 271 268 266 266 266 266 266 266 266 264 263 262 261 261 260 259 259 260 261 262 262 263 264 266 266 265 265 265 266 265 264 264 265 265 265 265 264 265 265 265 265 266 266 267 267 268 269 271 272 273 274 274 275 276 276
304 303 302 302 301 301 300 299 297 295 295 295 294 294 293 293 293 292 292 291 291 290 290 289 287 284 282 280 278 276 274 272 269 267 266 265 265 265 265 264 263 262 262 261 261 260 259 259 259 260 261 262 264 265 266 265 265 265 266 266 266 265 265 265 265 265 265 266 266 266 266 266 267 267 268 269 270 271 273 274 275 276 276 277 277
303 303 302 302 301 301 300 299 298 296 295 295 294 293 293 293 293 293 293 292 292 291 291 290 289 288 286 285 283 280 279 277 274 270 268 267 266 266 266 265 264 264 263 262 261 260 259 259 259 258 259 260 261 262 263 264 265 265 266 267 266 266 265 266 266 266 266 266 267 267 267 267 268 268 269 270 270 272 273 274 275 275 276 277 277
304 303 303 303 303 303 302 301 300 299 298 297 296 296 296 296 296 295 295 295 294 293 292 291 291 289 288 288 287 286 283 281 278 276 273 271 269 270 270 268 266 266 264 263 262 261 260 259 259 259 258 258 258 259 260 262 263 264 265 265 265 265 266 266 267 267 267 267 267 267 268 268 268 269 270 271 271 272 273 274 274 275 275 275 276
307 307 306 307 307 307 307 306 305 304 302 301 300 299 299 299 299 299 299 299 298 297 297 295 294 292 291 290 290 289 288 286 285 283 281 277 273 271 273 272 270 269 267 264 263 261 260 259 259 259 259 258 258 258 259 260 261 261 262 263 264 265 265 266 266 266 266 267 267 267 267 268 269 269 270 271 271 272 272 273 273 273 274 274 275
312 311 312 312 313 313 314 313 312 311 310 308 306 305 304 303 302 302 303 302 302 302 302 301 298 296 294 292 291 290 290 291 290 288 284 281 276 273 273 272 270 268 268 267 265 264 262 261 260 259 259 258 258 258 258 259 259 259 260 261 263 264 264 265 265 266 266 266 266 267 267 268 268 269 269 270 270 271 271 272 272 273 274 275 277
315 315 316 317 318 318 318 318 317 316 315 314 312 311 309 308 306 306 305 305 304 304 303 303 301 298 296 294 292 291 290 289 288 285 282 279 276 272 271 271 268 266 266 266 266 265 265 264 263 262 261 260 259 259 258 258 258 259 259 260 262 263 263 264 264 264 264 265 265 265 266 266 267 268 268 269 269 270 271 271 272 274 275 276 277
314 314 315 316 317 318 318 317 316 315 314 313 312 312 311 310 309 308 307 306 305 305 304 303 301 299 297 295 293 291 289 286 284 282 280 278 274 271 269 268 267 266 265 264 264 264 264 264 264 264 263 262 261 260 259 259 258 259 259 260 261 262 262 262 262 262 262 262 262 263 263 264 264 265 266 267 268 269 270 270 272 273 274 275 276
311 311 311 311 312 313 315 316 316 315 312 310 309 308 308 308 308 308 307 306 305 304 303 302 301 299 297 294 293 292 290 287 284 281 279 277 275 272 270 269 268 266 265 264 263 262 262 263 263 263 263 262 261 260 259 259 259 259 260 260 261 261 261 262 262 261 261 261 261 262 262 262 263 264 265 266 267 268 269 270 271 273 274 276 277
309 309 309 308 308 309 312 314 316 316 314 312 309 307 306 306 306 306 307 307 306 304 303 301 301 300 298 295 295 294 291 288 287 286 283 280 277 273 272 272 272 271 269 266 264 263 263 263 263 263 263 263 262 262 261 260 260 260 260 261 262 262 262 262 262 262 262 262 262 262 263 263 264 264 265 266 266 267 269 270 272 273 275 277 279
306 307 307 307 307 307 309 312 314 316 316 314 311 309 308 307 306 305 306 306 307 306 304 303 302 301 299 299 300 299 295 292 292 291 290 287 285 281 278 278 278 276 275 273 270 267 265 264 263 263 263 263 264 264 263 262 261 262 262 262 263 263 263 263 263 263 263 263 263 263 263 264 264 265 265 266 266 268 270 271 273 275 277 280 284
304 305 305 306 306 306 308 310 313 314 315 314 313 311 309 308 307 306 305 306 306 306 304 303 302 301 300 301 303 302 301 300 299 297 296 294 293 292 291 289 287 283 280 278 276 273 270 268 267 266 265 265 264 263 263 262 261 261 262 262 262 262 262 262 262 263 263 263 263 263 264 264 264 265 266 266 268 270 272 274 276 279 281 284 288
303 304 304 305 305 306 307 309 311 312 313 313 312 311 310 308 307 307 306 305 305 304 303 301 300 298 298 299 300 300 300 300 300 299 299 298 297 297 297 296 294 290 285 282 280 277 274 272 270 269 268 268 267 265 263 261 260 260 260 260 261 261 261 262 262 262 263 263 264 264 265 265 265 266 267 268 269 271 274 277 279 282 284 287 290
303 303 303 304 304 305 306 308 309 310 311 311 311 310 310 308 307 306 305 304 304 303 302 300 298 297 296 296 296 297 297 297 296 297 297 298 298 298 299 298 296 293 290 287 284 280 277 273 270 269 268 268 269 268 266 264 263 262 260 259 259 260 260 261 262 263 264 265 265 266 266 266 267 267 267 268 270 272 275 277 279 282 285 287 290
302 303 303 303 303 304 305 306 307 308 308 308 308 309 309 308 307 306 305 305 304 302 301 300 299 298 297 296 295 295 295 295 295 296 297 297 298 299 299 299 297 294 292 288 285 283 280 276 273 271 270 270 270 269 268 266 266 265 264 262 260 260 260 261 263 264 265 266 267 267 267 267 267 267 267 267 269 271 273 275 278 281 283 286 288
302 302 302 303 303 303 304 305 305 305 306 306 306 306 307 307 307 306 305 305 304 304 303 301 300 300 299 298 297 296 296 296 296 296 297 297 298 299 300 300 299 297 294 290 287 283 280 278 275 273 272 272 271 269 268 267 267 266 266 266 264 263 262 262 263 265 266 266 266 266 265 265 264 264 265 266 267 269 271 273 276 278 281 283 286
301 301 302 302 302 302 303 303 303 303 304 304 304 305 305 305 306 305 305 305 305 305 305 304 303 303 302 301 300 299 298 298 298 297 298 298 299 300 300 301 300 299 296 293 290 286 282 279 276 274 273 272 271 269 268 268 269 268 268 268 267 266 266 265 265 265 264 265 265 264 264 264 263 263 263 264 265 267 269 271 273 275 277 279 281
300 300 301 301 301 301 302 302 302 302 303 303 304 304 304 304 305 305 305 305 305 306 306 306 305 304 303 303 303 303 302 301 300 300 300 300 300 300 301 301 301 300 298 295 292 289 285 281 278 276 273 272 272 271 269 269 270 270 269 269 267 266 266 266 265 264 264 265 265 264 264 264 263 263 263 263 265 266 268 269 271 272 274 275 277
300 301 301 301 301 301 301 301 302 302 302 302 303 303 303 304 304 304 304 304 304 305 305 305 304 303 303 302 302 301 301 302 302 301 301 301 301 302 302 303 303 303 301 299 296 293 290 286 282 278 275 273 272 272 271 270 269 269 270 269 268 266 265 265 264 263 264 264 264 264 264 263 263 263 263 264 265 265 266 268 269 270 271 272 273
301 302 302 302 302 302 302 301 301 301 301 301 301 302 302 302 303 303 303 303 303 304 304 304 304 304 303 302 300 299 299 298 299 299 300 300 301 301 301 301 302 302 302 301 299 296 293 290 286 283 279 276 274 273 272 272 271 271 270 270 269 268 267 266 264 263 262 261 261 263 264 264 263 263 263 263 264 265 265 267 268 269 270 270 270
302 302 302 302 302 302 302 302 301 301 301 301 301 301 301 301 301 301 301 301 302 303 303 303 303 303 302 302 301 299 298 297 296 296 296 296 297 297 297 297 299 300 301 301 300 298 296 293 290 286 283 281 278 276 275 274 273 273 272 271 271 271 270 268 266 265 264 262 261 262 265 265 264 263 263 263 264 264 264 265 266 267 268 269 268
302 302 302 302 302 302 302 302 301 301 302 301 301 301 300 300 300 300 300 300 301 301 302 302 302 302 302 301 300 299 298 297 296 295 294 293 293 294 294 295 296 298 299 300 300 299 297 295 292 289 286 284 281 279 278 277 276 275 274 273 272 272 272 271 270 268 267 266 263 263 265 266 265 264 263 264 264 264 264 263 264 265 267 268 268
302 302 302 302 302 302 302 302 302 302 302 301 301 300 299 299 299 299 299 299 300 300 300 301 301 301 301 300 300 299 298 298 297 295 294 294 293 292 292 293 294 295 297 298 299 299 298 297 294 292 289 286 284 282 281 280 279 278 276 275 274 273 273 273 272 271 270 269 267 265 265 266 265 264 263 263 264 264 264 263 263 264 265 266 267
302 302 302 302 302 302 302 302 302 301 301 300 300 299 299 298 298 298 298 298 298 298 298 299 299 299 300 299 299 298 297 297 296 295 294 294 293 292 291 290 291 292 293 295 297 298 298 297 296 294 292 289 287 285 284 282 281 280 279 278 277 275 274 274 274 273 273 271 270 269 268 267 266 264 262 262 263 263 263 262 261 262 264 265 266
301 301 301 301 302 302 302 302 301 301 301 301 300 300 299 298 298 297 297 297 297 297 297 297 297 298 298 298 298 297 296 296 295 294 293 292 291 291 290 289 288 289 290 293 295 296 297 297 296 294 293 292 290 288 286 285 283 282 281 280 280 278 276 275 274 274 274 274 273 273 271 269 267 264 262 262 262 261 261 260 259 259 260 262 263
302 302 301 301 301 301 301 301 301 301 301 301 301 301 300 300 299 299 298 297 297 297 296 297 296 297 297 297 297 297 296 295 294 292 292 291 290 289 288 287 286 286 288 290 293 295 296 296 296 295 294 293 292 290 288 287 285 284 284 283 282 281 279 276 275 274 274 274 274 274 272 270 268 266 263 262 262 261 261 259 258 257 256 257 259
303 303 302 302 301 301 300 300 300 300 300 300 301 301 301 300 300 300 299 299 298 298 297 297 297 296 296 296 296 296 295 294 293 292 290 289 289 288 287 285 283 283 284 287 290 292 294 295 294 294 294 293 293 292 291 289 288 287 286 285 284 281 279 278 276 275 274 274 273 273 273 271 269 267 265 263 262 262 261 259 258 256 254 253 253
303 303 302 302 301 301 300 300 300 300 300 300 300 300 300 300 300 299 299 299 299 299 298 298 298 297 296 296 296 296 295 294 293 291 289 288 287 286 285 283 281 281 282 283 285 288 290 292 292 292 292 293 293 293 292 290 288 288 287 286 283 280 277 276 275 275 274 273 272 272 271 270 268 267 267 265 263 262 260 258 256 254 252 250 249
303 303 303 302 302 301 301 300 300 300 299 299 299 299 299 299 298 298 298 299 299 299 299 299 298 298 297 297 296 296 295 294 293 291 289 288 286 285 284 282 279 279 279 280 282 284 287 289 290 291 292 293 294 293 291 288 287 287 287 286 284 281 278 276 275 274 273 272 271 270 269 268 267 266 265 264 262 259 257 255 253 250 249 247 246
303 303 302 302 302 301 301 300 300 300 300 299 298 298 297 297 297 297 297 297 298 298 299 299 299 298 298 297 297 296 296 295 294 292 290 288 286 285 283 281 279 277 277 278 279 281 283 285 287 289 291 292 293 292 289 286 284 285 287 286 283 281 279 277 275 274 272 270 269 269 268 267 266 264 262 261 258 256 253 252 250 248 245 243 241
304 302 302 301 301 301 301 300 300 300 299 299 299 298 297 296 296 296 296 296 297 297 298 299 299 299 298 298 297 297 297 296 294 292 290 288 286 285 283 281 279 277 276 276 277 277 279 281 283 285 287 289 290 290 287 284 283 284 286 285 282 279 278 276 274 274 272 270 268 267 266 265 264 262 261 261 258 255 252 250 249 247 246 244 242
305 303 302 301 300 300 299 299 299 299 299 299 298 298 297 297 296 296 295 295 295 296 297 298 298 299 298 298 297 297 297 297 295 293 291 289 287 285 284 282 280 278 277 276 275 275 276 277 279 281 283 284 285 285 284 283 282 282 282 280 278 277 277 276 275 273 271 268 266 265 264 263 262 261 260 260 258 256 253 251 249 248 249 248 247
307 304 302 301 300 299 298 298 298 298 298 298 298 298 298 297 296 296 295 295 294 294 294 295 296 297 298 298 297 297 297 297 296 294 291 289 287 285 284 282 280 278 277 276 275 274 274 274 275 276 278 279 280 281 281 281 280 280 279 277 275 274 274 275 274 272 269 266 263 262 261 261 261 261 260 259 258 256 254 252 250 248 248 248 248
Height
3071 3070 3069 3068 3067 3066 3065 3064 3063 3063 3062 3061 3059 3059 3058 3057 3056 3055 3054 3053 3052 3051 3051 3050 3049 3048 3047 3046 3046 3045 3044 3044 3042 3042 3041 3040 3039 3038 3038 3037 3036 3036 3036 3035 3035 3034 3033 3032 3032 3031 3031 3030 3029 3029 3028 3028 3027 3026 3026 3024 3024 3023 3022 3019 3015 3012 3014 3016 3017 3017 3018 3018 3018 3018 3018 3020 3020 3019 3017 3017 3016 3015 3015 3014 3013
3065 3064 3063 3062 3061 3060 3059 3058 3057 3056 3056 3055 3054 3053 3052 3051 3050 3049 3048 3047 3046 3045 3045 3044 3043 3042 3041 3040 3040 3039 3038 3038 3037 3036 3035 3034 3033 3033 3032 3031 3030 3030 3029 3029 3029 3028 3027 3026 3026 3026 3025 3024 3024 3023 3023 3022 3021 3021 3020 3019 3018 3018 3017 3014 3011 3008 3008 3010 3011 3011 3012 3011 3010 3010 3010 3012 3014 3013 3012 3011 3011 3010 3009 3008 3007
3059 3058 3056 3055 3054 3053 3052 3051 3050 3049 3049 3048 3047 3046 3045 3045 3044 3043 3042 3041 3040 3039 3038 3037 3037 3036 3035 3034 3034 3033 3032 3032 3031 3030 3029 3028 3028 3027 3026 3025 3024 3024 3023 3023 3023 3022 3021 3021 3020 3020 3019 3018 3018 3018 3017 3016 3015 3014 3014 3014 3012 3012 3011 3009 3006 3004 3002 3003 3004 3005 3006 3005 3004 3003 3002 3003 3006 3007 3006 3005 3005 3004 3004 3002 3001
3053 3052 3050 3049 3047 3046 3045 3044 3043 3042 3042 3041 3040 3039 3038 3038 3037 3036 3035 3035 3034 3033 3032 3031 3030 3029 3029 3028 3028 3027 3027 3026 3025 3024 3023 3022 3021 3021 3020 3019 3019 3018 3017 3017 3016 3015 3015 3014 3014 3013 3012 3011 3011 3011 3011 3010 3009 3008 3008 3007 3006 3006 3005 3003 3001 2999 2997 2996 2997 2998 2999 3000 2998 2997 2995 2995 2997 2998 2998 2999 2998 2998 2997 2996 2995
3046 3045 3044 3042 3041 3040 3039 3037 3036 3035 3035 3034 3033 3032 3031 3030 3029 3028 3028 3027 3026 3026 3025 3024 3023 3022 3021 3021 3020 3020 3019 3019 3018 3018 3017 3016 3015 3014 3014 3013 3012 3012 3011 3011 3010 3009 3008 3008 3007 3006 3005 3004 3004 3004 3004 3003 3002 3001 3001 3000 3000 2999 2998 2997 2996 2995 2992 2990 2991 2992 2993 2993 2993 2992 2990 2989 2989 2990 2990 2991 2992 2992 2991 2990 2989
3040 3039 3037 3036 3035 3033 3032 3031 3030 3028 3028 3027 3026 3025 3024 3023 3022 3020 3020 3019 3018 3018 3017 3016 3015 3014 3014 3013 3012 3012 3012 3011 3010 3010 3009 3009 3008 3007 3006 3006 3005 3004 3004 3003 3003 3002 3001 3001 3001 3000 2998 2997 2997 2996 2996 2996 2994 2994 2993 2993 2993 2991 2991 2991 2989 2988 2987 2985 2985 2985 2986 2986 2986 2985 2985 2983 2983 2983 2982 2983 2984 2984 2983 2983 2983
3034 3032 3030 3029 3028 3027 3025 3024 3022 3021 3020 3019 3018 3017 3016 3014 3014 3012 3011 3010 3010 3009 3009 3008 3008 3007 3006 3005 3004 3004 3003 3003 3002 3001 3000 3000 3000 2999 2999 2998 2997 2997 2996 2996 2995 2994 2994 2994 2993 2993 2992 2990 2990 2989 2989 2988 2987 2987 2987 2986 2985 2984 2983 2983 2983 2981 2980 2980 2979 2979 2979 2979 2978 2978 2978 2977 2976 2976 2975 2973 2974 2976 2975 2975 2976
3027 3025 3024 3022 3020 3019 3018 3016 3015 3014 3012 3011 3009 3008 3007 3006 3005 3004 3003 3002 3001 3000 3000 2999 2999 2998 2997 2997 2996 2995 2995 2994 2993 2992 2992 2991 2990 2990 2990 2989 2989 2989 2988 2988 2987 2986 2986 2985 2985 2985 2984 2983 2983 2982 2981 2981 2980 2980 2980 2980 2978 2978 2977 2976 2976 2975 2973 2973 2972 2972 2972 2972 2972 2971 2972 2970 2969 2969 2969 2966 2965 2967 2967 2966 2968
3021 3019 3017 3015 3013 3011 3009 3008 3007 3006 3004 3003 3001 3000 2999 2998 2996 2995 2994 2993 2992 2991 2990 2990 2989 2989 2988 2988 2987 2987 2986 2986 2985 2984 2983 2982 2981 2981 2980 2980 2979 2979 2979 2979 2979 2978 2977 2977 2976 2976 2975 2975 2975 2975 2974 2973 2972 2972 2973 2972 2971 2971 2970 2969 2968 2968 2967 2966 2965 2966 2965 2964 2965 2966 2965 2964 2962 2961 2960 2959 2957 2958 2958 2957 2960
3014 3011 3009 3007 3006 3004 3002 3000 2998 2997 2995 2994 2993 2991 2990 2989 2988 2987 2986 2984 2983 2982 2981 2981 2980 2979 2979 2978 2978 2978 2977 2976 2976 2975 2974 2973 2972 2972 2971 2971 2970 2969 2969 2969 2969 2969 2969 2968 2968 2968 2967 2967 2967 2966 2966 2965 2964 2964 2964 2964 2963 2963 2962 2962 2961 2961 2960 2958 2958 2959 2957 2957 2959 2960 2957 2958 2957 2953 2952 2952 2950 2950 2950 2948 2951
3005 3003 3000 2999 2997 2995 2993 2992 2990 2988 2987 2985 2983 2982 2981 2979 2978 2977 2976 2975 2974 2973 2972 2971 2971 2970 2969 2969 2968 2968 2968 2967 2966 2966 2965 2963 2962 2962 2962 2962 2961 2960 2960 2959 2959 2960 2959 2959 2959 2959 2959 2959 2959 2958 2958 2957 2956 2956 2956 2955 2955 2954 2954 2954 2954 2953 2952 2951 2951 2951 2950 2949 2952 2953 2951 2951 2950 2946 2946 2945 2943 2942 2943 2940 2941
2995 2993 2991 2989 2987 2985 2983 2982 2980 2979 2978 2976 2975 2973 2971 2970 2968 2967 2966 2965 2964 2963 2963 2961 2961 2960 2960 2959 2959 2958 2959 2959 2957 2956 2956 2955 2953 2952 2952 2952 2952 2952 2951 2950 2950 2950 2950 2950 2950 2949 2950 2950 2950 2949 2949 2949 2948 2948 2947 2947 2946 2946 2946 2945 2945 2945 2945 2943 2943 2944 2944 2943 2944 2945 2946 2944 2941 2939 2939 2938 2936 2935 2934 2933 2933
2986 2984 2982 2979 2977 2974 2972 2971 2969 2968 2967 2965 2964 2963 2961 2960 2958 2957 2956 2955 2954 2953 2952 2951 2950 2950 2949 2949 2949 2949 2949 2949 2948 2947 2946 2946 2944 2943 2942 2942 2942 2942 2942 2942 2942 2941 2941 2941 2940 2941 2941 2941 2941 2940 2940 2939 2940 2939 2939 2939 2938 2938 2937 2937 2937 2937 2936 2936 2935 2936 2938 2937 2935 2937 2940 2936 2932 2931 2931 2930 2929 2927 2926 2926 2925
2978 2975 2973 2971 2968 2965 2963 2961 2960 2958 2956 2954 2953 2952 2950 2949 2948 2947 2945 2944 2943 2942 2941 2940 2940 2939 2938 2937 2938 2939 2939 2939 2938 2937 2937 2936 2935 2933 2933 2933 2933 2933 2933 2933 2933 2933 2932 2932 2932 2932 2933 2933 2932 2931 2931 2930 2930 2930 2930 2930 2930 2930 2929 2929 2929 2929 2928 2928 2926 2927 2931 2930 2926 2928 2932 2929 2923 2923 2923 2922 2922 2921 2919 2918 2917
2971 2968 2965 2962 2959 2957 2954 2952 2951 2949 2947 2945 2943 2941 2940 2938 2937 2936 2935 2934 2933 2932 2931 2930 2929 2929 2928 2927 2926 2927 2928 2928 2927 2927 2927 2926 2925 2924 2923 2923 2923 2923 2924 2924 2924 2924 2924 2924 2923 2924 2924 2924 2924 2922 2922 2921 2921 2921 2921 2921 2921 2922 2921 2921 2921 2921 2920 2919 2917 2918 2921 2921 2919 2919 2922 2921 2916 2914 2914 2913 2914 2913 2910 2909 2910
2964 2961 2958 2955 2952 2949 2946 2944 2942 2940 2938 2936 2934 2932 2931 2929 2927 2925 2924 2923 2923 2922 2920 2919 2918 2918 2917 2917 2915 2915 2917 2917 2916 2916 2916 2915 2914 2913 2913 2913 2913 2914 2914 2914 2914 2915 2915 2915 2915 2915 2916 2915 2915 2914 2913 2913 2912 2912 2912 2912 2912 2913 2912 2912 2913 2913 2912 2911 2909 2910 2912 2912 2912 2911 2912 2912 2909 2906 2904 2903 2906 2906 2901 2899 2901
2957 2954 2951 2948 2946 2943 2940 2937 2935 2933 2930 2928 2926 2924 2922 2921 2919 2917 2915 2914 2913 2912 2910 2910 2909 2908 2907 2906 2905 2905 2906 2907 2905 2905 2905 2904 2903 2902 2902 2903 2903 2904 2904 2905 2905 2905 2906 2906 2906 2906 2907 2906 2906 2905 2904 2904 2903 2903 2903 2903 2904 2904 2904 2904 2904 2904 2904 2902 2901 2903 2903 2903 2904 2903 2902 2903 2901 2898 2894 2893 2898 2897 2892 2889 2891
2950 2948 2945 2942 2939 2937 2934 2931 2928 2926 2924 2921 2919 2917 2915 2913 2911 2909 2907 2905 2904 2903 2901 2900 2900 2899 2897 2897 2896 2895 2895 2897 2897 2895 2895 2894 2893 2892 2892 2892 2893 2893 2894 2894 2895 2896 2896 2897 2897 2897 2897 2897 2897 2896 2895 2894 2894 2894 2894 2894 2895 2896 2896 2895 2895 2896 2895 2893 2893 2894 2894 2895 2895 2894 2894 2894 2893 2890 2886 2885 2889 2888 2883 2882 2883
2944 2941 2939 2936 2933 2931 2928 2925 2923 2920 2918 2916 2913 2911 2909 2906 2904 2902 2900 2897 2896 2895 2893 2891 2890 2890 2889 2887 2887 2886 2885 2887 2888 2886 2885 2884 2883 2882 2882 2882 2882 2883 2883 2884 2885 2886 2887 2887 2888 2888 2888 2888 2887 2887 2886 2886 2885 2885 2885 2885 2886 2888 2887 2885 2885 2887 2886 2885 2885 2885 2885 2886 2885 2885 2886 2886 2884 2882 2879 2878 2879 2878 2875 2874 2874
2937 2935 2932 2930 2927 2924 2922 2919 2917 2914 2912 2910 2908 2906 2903 2900 2898 2896 2893 2891 2889 2887 2886 2884 2882 2881 2881 2879 2878 2878 2877 2877 2878 2877 2875 2875 2874 2872 2872 2872 2872 2873 2873 2874 2875 2876 2877 2877 2878 2878 2878 2877 2877 2878 2877 2877 2876 2875 2876 2876 2877 2879 2878 2875 2876 2878 2877 2876 2877 2876 2876 2877 2876 2876 2877 2877 2876 2874 2871 2870 2870 2869 2867 2865 2865
2931 2928 2926 2923 2921 2919 2916 2913 2911 2909 2906 2904 2902 2900 2897 2894 2892 2890 2887 2885 2883 2881 2879 2877 2874 2873 2873 2871 2870 2870 2869 2868 2868 2868 2867 2866 2865 2864 2863 2863 2863 2863 2863 2865 2865 2866 2867 2867 2867 2868 2868 2867 2868 2868 2868 2868 2866 2866 2867 2867 2868 2869 2868 2867 2868 2868 2868 2868 2868 2868 2868 2868 2868 2867 2868 2868 2867 2866 2864 2862 2862 2861 2859 2857 2856
2926 2923 2920 2918 2915 2913 2911 2908 2905 2903 2901 2898 2896 2895 2892 2889 2887 2884 2881 2879 2877 2875 2873 2871 2868 2866 2865 2864 2863 2862 2861 2860 2860 2860 2859 2858 2857 2856 2855 2855 2855 2854 2853 2855 2856 2856 2857 2857 2857 2857 2857 2857 2858 2859 2859 2858 2857 2857 2857 2858 2858 2859 2859 2859 2859 2859 2859 2860 2860 2859 2859 2859 2859 2859 2859 2859 2859 2857 2855 2854 2854 2853 2851 2849 2848
2921 2919 2916 2913 2911 2908 2906 2904 2901 2899 2896 2894 2891 2890 2887 2885 2882 2879 2876 2874 2871 2869 2868 2865 2862 2860 2859 2858 2857 2856 2854 2853 2853 2853 2852 2851 2850 2849 2848 2848 2847 2845 2844 2845 2846 2847 2847 2848 2847 2847 2847 2847 2849 2849 2849 2849 2848 2848 2848 2848 2849 2850 2850 2850 2850 2850 2850 2851 2851 2851 2851 2850 2850 2851 2850 2850 2849 2849 2847 2846 2845 2844 2842 2841 2841
2917 2915 2912 2910 2907 2905 2902 2900 2897 2895 2892 2889 2887 2885 2882 2880 2877 2874 2872 2869 2866 2864 2862 2860 2857 2855 2853 2852 2851 2850 2849 2848 2847 2846 2845 2844 2843 2843 2842 2841 2841 2839 2836 2836 2837 2838 2838 2838 2838 2838 2838 2839 2839 2840 2840 2840 2839 2839 2839 2839 2840 2841 2841 2841 2842 2842 2842 2842 2843 2843 2843 2842 2842 2842 2842 2841 2840 2840 2840 2838 2837 2835 2834 2833 2833
2914 2912 2909 2906 2904 2902 2899 2896 2894 2891 2888 2885 2883 2880 2877 2875 2872 2870 2867 2864 2862 2860 2857 2855 2852 2850 2848 2847 2845 2845 2844 2842 2841 2840 2839 2838 2837 2836 2836 2835 2834 2832 2830 2830 2830 2830 2830 2829 2829 2829 2830 2830 2831 2831 2832 2832 2831 2830 2830 2831 2831 2832 2832 2833 2833 2833 2834 2834 2834 2835 2835 2834 2834 2834 2833 2833 2832 2832 2832 2831 2829 2828 2827 2826 2826
2912 2909 2906 2903 2901 2898 2896 2893 2891 2888 2885 2882 2879 2876 2873 2870 2868 2865 2862 2860 2857 2855 2853 2850 2848 2845 2844 2842 2840 2839 2838 2836 2835 2834 2833 2832 2831 2830 2829 2828 2827 2825 2824 2823 2823 2823 2822 2822 2821 2822 2822 2822 2822 2823 2823 2823 2823 2823 2823 2823 2823 2824 2824 2824 2825 2825 2826 2826 2826 2827 2827 2826 2826 2826 2826 2825 2825 2824 2824 2823 2822 2821 2819 2819 2819
2909 2906 2903 2900 2898 2895 2893 2890 2887 2884 2882 2879 2876 2873 2870 2867 2864 2861 2858 2856 2853 2851 2848 2846 2843 2841 2839 2837 2836 2835 2833 2831 2830 2829 2827 2826 2825 2824 2823 2821 2820 2819 2818 2817 2817 2816 2815 2815 2815 2814 2814 2814 2814 2815 2815 2815 2815 2815 2815 2815 2815 2816 2816 2816 2817 2817 2817 2818 2818 2819 2819 2819 2819 2819 2818 2818 2817 2817 2816 2815 2815 2814 2812 2811 2811
2905 2902 2899 2897 2894 2892 2889 2886 2883 2881 2878 2875 2872 2869 2866 2863 2860 2857 2854 2851 2849 2847 2844 2842 2839 2836 2834 2832 2831 2830 2828 2826 2825 2823 2822 2821 2819 2819 2817 2816 2814 2813 2812 2811 2811 2810 2809 2809 2808 2808 2807 2807 2807 2807 2807 2807 2807 2807 2807 2808 2808 2808 2808 2808 2809 2809 2809 2810 2810 2810 2811 2811 2811 2811 2811 2810 2810 2809 2808 2808 2807 2806 2805 2804 2803
2900 2898 2895 2893 2890 2887 2885 2882 2879 2876 2873 2870 2867 2865 2862 2859 2856 2853 2850 2848 2845 2842 2840 2837 2835 2832 2829 2827 2826 2824 2823 2821 2820 2818 2817 2816 2814 2813 2812 2810 2809 2808 2807 2806 2805 2804 2804 2803 2802 2802 2802 2801 2801 2800 2800 2800 2800 2799 2800 2800 2800 2801 2801 2801 2801 2801 2801 2802 2802 2802 2803 2803 2803 2803 2803 2803 2802 2802 2801 2800 2800 2799 2798 2797 2795
2895 2893 2890 2888 2885 2883 2880 2877 2875 2872 2869 2866 2863 2860 2858 2855 2852 2849 2846 2844 2841 2839 2836 2833 2831 2828 2825 2823 2822 2820 2818 2816 2815 2813 2812 2810 2809 2808 2807 2805 2803 2803 2802 2801 2800 2799 2799 2798 2797 2796 2796 2795 2795 2795 2794 2794 2793 2793 2793 2793 2793 2793 2794 2794 2794 2794 2794 2794 2795 2795 2795 2795 2796 2796 2795 2795 2795 2794 2794 2793 2792 2791 2791 2789 2788
2890 2888 2885 2883 2880 2878 2875 2872 2870 2867 2864 2861 2858 2856 2853 2851 2848 2846 2843 2840 2838 2835 2833 2830 2828 2825 2823 2820 2818 2816 2814 2812 2811 2809 2807 2806 2804 2803 2802 2800 2799 2798 2797 2796 2795 2794 2793 2793 2792 2791 2790 2790 2789 2789 2789 2788 2788 2787 2787 2787 2786 2787 2787 2787 2787 2788 2788 2788 2788 2788 2789 2789 2788 2788 2788 2788 2788 2787 2787 2786 2785 2784 2783 2782 2781
2884 2882 2879 2877 2874 2872 2870 2867 2864 2862 2859 2856 2854 2851 2848 2846 2844 2842 2840 2837 2835 2832 2830 2827 2825 2823 2820 2817 2815 2813 2811 2809 2807 2805 2803 2802 2800 2798 2797 2796 2794 2793 2792 2791 2789 2789 2788 2787 2786 2785 2785 2784 2784 2784 2783 2783 2782 2782 2781 2781 2781 2780 2780 2781 2781 2781 2781 2781 2782 2782 2782 2782 2782 2782 2781 2781 2781 2781 2780 2779 2779 2778 2777 2776 2775
2879 2876 2874 2871 2869 2866 2864 2861 2859 2856 2854 2851 2849 2846 2844 2841 2838 2836 2835 2833 2832 2829 2826 2824 2821 2819 2817 2815 2812 2809 2807 2805 2803 2801 2799 2797 2796 2794 2793 2791 2790 2788 2787 2786 2784 2783 2783 2782 2781 2780 2779 2779 2779 2778 2778 2777 2777 2776 2776 2776 2775 2775 2775 2775 2775 2775 2775 2775 2775 2776 2776 2776 2776 2775 2775 2775 2775 2774 2774 2773 2773 2772 2771 2771 2770
2874 2871 2868 2866 2863 2861 2858 2856 2853 2851 2848 2846 2844 2841 2839 2836 2834 2831 2829 2827 2826 2825 2823 2821 2818 2815 2813 2811 2809 2806 2804 2802 2799 2797 2795 2793 2791 2790 2788 2787 2785 2784 2782 2781 2779 2778 2777 2776 2775 2775 2774 2774 2773 2773 2772 2772 2771 2771 2771 2771 2770 2770 2770 2769 2769 2769 2769 2769 2769 2769 2770 2770 2770 2770 2769 2769 2769 2769 2768 2768 2767 2767 2766 2765 2764
2868 2866 2863 2861 2858 2856 2853 2851 2848 2846 2843 2841 2839 2837 2834 2832 2830 2827 2825 2822 2820 2819 2818 2816 2814 2811 2809 2807 2805 2803 2800 2798 2796 2793 2791 2789 2787 2786 2784 2783 2781 2779 2778 2776 2774 2773 2772 2771 2770 2769 2769 2768 2768 2767 2767 2767 2766 2766 2766 2766 2766 2765 2765 2765 2764 2764 2764 2764 2764 2764 2764 2764 2764 2764 2764 2764 2763 2763 2763 2763 2762 2762 2761 2761 2760
2863 2861 2858 2856 2853 2851 2849 2846 2844 2841 2838 2836 2834 2832 2829 2827 2825 2823 2820 2818 2816 2814 2812 2810 2809 2807 2804 2802 2801 2799 2796 2794 2792 2789 2787 2785 2783 2782 2780 2778 2777 2776 2774 2772 2770 2769 2767 2766 2765 2764 2763 2763 2762 2762 2762 2762 2761 2761 2761 2761 2761 2761 2760 2760 2760 2759 2759 2759 2759 2759 2759 2759 2759 2759 2759 2759 2758 2758 2758 2758 2757 2757 2757 2756 2755
2858 2855 2853 2851 2848 2846 2844 2841 2839 2836 2834 2831 2829 2827 2825 2823 2820 2818 2816 2814 2812 2810 2807 2805 2804 2802 2800 2798 2796 2795 2793 2790 2788 2785 2783 2781 2779 2777 2775 2774 2773 2771 2770 2768 2766 2765 2763 2762 2761 2760 2759 2758 2757 2757 2756 2756 2756 2756 2756 2756 2756 2756 2756 2755 2755 2755 2755 2754 2754 2754 2754 2754 2754 2754 2754 2754 2753 2753 2753 2753 2752 2752 2752 2751 2751
2853 2850 2848 2845 2843 2841 2838 2836 2834 2832 2830 2827 2825 2823 2820 2818 2816 2814 2811 2809 2807 2805 2803 2801 2799 2797 2795 2793 2792 2790 2789 2787 2785 2783 2780 2778 2776 2774 2772 2770 2769 2767 2766 2764 2762 2761 2759 2758 2756 2755 2754 2753 2753 2752 2752 2751 2751 2751 2751 2751 2751 2751 2751 2751 2751 2751 2751 2750 2750 2750 2750 2750 2749 2749 2749 2749 2749 2748 2748 2748 2748 2747 2747 2747 2746
2848 2846 2843 2840 2838 2836 2833 2831 2829 2827 2824 2822 2820 2818 2816 2813 2811 2809 2807 2805 2803 2800 2798 2796 2794 2792 2790 2788 2786 2785 2784 2782 2781 2779 2777 2775 2773 2771 2769 2767 2765 2764 2762 2760 2758 2757 2756 2754 2752 2751 2750 2749 2748 2748 2747 2747 2746 2746 2746 2746 2746 2746 2746 2746 2746 2746 2746 2746 2746 2746 2745 2745 2745 2745 2745 2744 2744 2744 2744 2743 2743 2743 2742 2742 2742
2843 2840 2838 2836 2833 2831 2828 2826 2824 2821 2819 2817 2815 2812 2810 2808 2806 2804 2802 2800 2798 2795 2793 2791 2789 2787 2785 2783 2781 2779 2778 2777 2776 2774 2773 2771 2770 2768 2765 2764 2762 2760 2759 2757 2755 2753 2752 2751 2749 2748 2746 2745 2744 2744 2743 2743 2742 2742 2742 2741 2741 2741 2741 2741 2742 2742 2741 2741 2741 2741 2741 2741 2741 2741 2740 2740 2740 2739 2739 2739 2739 2738 2738 2738 2738
2837 2835 2832 2830 2828 2825 2823 2821 2818 2816 2814 2811 2809 2807 2805 2803 2801 2799 2796 2794 2792 2790 2788 2786 2784 2782 2780 2778 2776 2774 2772 2771 2770 2769 2768 2766 2765 2764 2762 2760 2758 2757 2755 2754 2752 2750 2749 2747 2746 2744 2743 2742 2741 2740 2739 2739 2738 2738 2737 2737 2737 2737 2737 2737 2737 2737 2737 2737 2737 2737 2737 2737 2736 2736 2736 2736 2736 2735 2735 2735 2735 2734 2734 2734 2733
2831 2829 2827 2824 2822 2819 2817 2815 2813 2810 2808 2806 2804 2801 2799 2797 2795 2793 2791 2789 2787 2785 2783 2781 2779 2778 2776 2774 2772 2770 2768 2766 2765 2764 2762 2761 2760 2759 2758 2756 2755 2753 2752 2750 2749 2747 2746 2744 2743 2741 2740 2739 2738 2737 2736 2735 2735 2734 2734 2733 2733 2733 2733 2733 2733 2733 2733 2733 2733 2732 2732 2732 2732 2732 2732 2732 2732 2731 2731 2731 2731 2730 2730 2730 2730
2826 2824 2821 2819 2816 2814 2811 2809 2807 2805 2803 2800 2798 2796 2794 2791 2790 2788 2786 2784 2782 2780 2778 2776 2774 2773 2771 2769 2767 2765 2763 2761 2760 2759 2758 2756 2755 2754 2753 2752 2751 2749 2748 2747 2746 2744 2743 2741 2740 2738 2737 2736 2735 2734 2733 2732 2731 2731 2730 2730 2729 2729 2729 2729 2729 2729 2729 2729 2729 2728 2728 2728 2727 2727 2727 2727 2727 2727 2727 2727 2727 2727 2726 2726 2726
2820 2818 2816 2814 2811 2809 2806 2804 2801 2799 2797 2795 2793 2790 2788 2786 2784 2782 2780 2778 2776 2774 2773 2771 2769 2767 2766 2764 2762 2760 2759 2757 2755 2754 2753 2752 2751 2750 2749 2748 2746 2745 2744 2743 2742 2741 2739 2738 2737 2735 2734 2733 2732 2731 2730 2729 2728 2728 2727 2727 2726 2726 2725 2725 2725 2725 2725 2725 2725 2724 2724 2724 2724 2723 2723 2723 2724 2724 2724 2724 2723 2723 2723 2723 2723
2815 2813 2810 2808 2806 2804 2801 2799 2796 2794 2792 2790 2788 2786 2783 2781 2779 2776 2774 2773 2771 2769 2767 2766 2764 2762 2760 2759 2757 2756 2754 2752 2751 2749 2748 2747 2746 2745 2744 2743 2742 2741 2740 2739 2738 2737 2736 2735 2734 2732 2731 2730 2729 2728 2727 2726 2725 2725 2724 2724 2723 2723 2722 2722 2722 2721 2721 2721 2721 2721 2721 2720 2720 2720 2720 2720 2720 2720 2720 2720 2720 2720 2720 2719 2719
2810 2807 2805 2802 2800 2798 2796 2794 2791 2789 2787 2784 2782 2781 2779 2776 2774 2772 2770 2767 2766 2764 2762 2761 2759 2757 2756 2754 2752 2751 2749 2748 2746 2745 2744 2742 2741 2741 2740 2739 2738 2737 2736 2735 2735 2734 2733 2732 2731 2730 2728 2727 2726 2726 2725 2724 2723 2722 2722 2721 2721 2720 2720 2719 2719 2718 2718 2718 2718 2718 2717 2717 2717 2717 2717 2717 2717 2717 2717 2717 2717 2717 2716 2716 2716
2805 2802 2800 2797 2795 2792 2790 2788 2786 2784 2781 2779 2777 2775 2773 2771 2769 2767 2765 2763 2761 2759 2757 2756 2754 2752 2751 2749 2747 2746 2744 2743 2742 2740 2739 2738 2737 2736 2735 2735 2734 2733 2732 2731 2730 2730 2729 2728 2727 2726 2725 2724 2723 2723 2722 2721 2720 2720 2719 2719 2718 2717 2717 2717 2716 2716 2716 2715 2715 2715 2715 2714 2714 2714 2714 2714 2714 2714 2714 2714 2714 2714 2714 2714 2714
2800 2797 2795 2792 2789 2787 2785 2783 2781 2778 2776 2774 2772 2770 2768 2766 2764 2763 2761 2759 2757 2755 2753 2751 2749 2748 2746 2745 2743 2741 2740 2738 2737 2736 2735 2733 2733 2732 2731 2730 2729 2729 2728 2727 2726 2726 2725 2725 2724 2723 2722 2721 2721 2720 2719 2718 2718 2717 2717 2716 2716 2715 2715 2714 2714 2714 2713 2713 2713 2712 2712 2712 2712 2712 2712 2711 2711 2711 2712 2712 2712 2712 2712 2712 2712
2795 2792 2790 2787 2784 2782 2779 2777 2775 2773 2771 2769 2767 2765 2763 2761 2759 2758 2756 2754 2752 2750 2749 2747 2745 2743 2742 2740 2739 2737 2735 2734 2733 2731 2730 2729 2728 2727 2727 2726 2725 2725 2724 2723 2722 2722 2721 2721 2720 2720 2719 2718 2718 2717 2717 2716 2716 2715 2714 2714 2713 2713 2713 2712 2712 2711 2711 2711 2711 2710 2710 2710 2710 2710 2710 2710 2710 2710 2710 2710 2710 2710 2710 2710 2710
2789 2786 2784 2781 2779 2777 2774 2772 2770 2768 2766 2764 2762 2760 2758 2756 2754 2753 2751 2749 2748 2746 2744 2742 2741 2739 2737 2736 2734 2733 2732 2730 2729 2727 2726 2725 2724 2723 2723 2722 2721 2720 2720 2719 2719 2718 2718 2717 2717 2716 2716 2715 2715 2714 2714 2714 2713 2713 2712 2712 2711 2711 2711 2710 2710 2710 2709 2709 2709 2709 2708 2708 2708 2708 2708 2708 2708 2708 2708 2708 2708 2708 2708 2708 2708
2783 2780 2778 2776 2773 2771 2769 2767 2765 2763 2761 2758 2757 2755 2753 2751 2750 2748 2746 2745 2743 2742 2740 2738 2737 2735 2733 2732 2730 2729 2728 2726 2725 2724 2722 2721 2720 2719 2719 2718 2717 2717 2716 2715 2715 2714 2714 2714 2713 2713 2713 2712 2712 2712 2711 2711 2711 2710 2710 2710 2709 2709 2708 2708 2708 2708 2707 2707 2707 2707 2707 2707 2707 2707 2707 2707 2707 2707 2707 2707 2707 2706 2706 2707 2707